TimeMST,TemperatureF,Dew PointF,Humidity,Sea Level PressureIn,VisibilityMPH,Wind Direction,Wind SpeedMPH,Gust SpeedMPH,PrecipitationIn,Events,Conditions,WindDirDegrees,DateUTC
12:53 AM,8.1,-4.0,58,30.38,10.0,Calm,Calm,-,N/A,,Overcast,0,2013-12-04 07:53:00
1:53 AM,5.0,-5.1,63,30.39,10.0,SE,5.8,-,N/A,,Clear,140,2013-12-04 08:53:00
2:53 AM,7.0,-4.0,61,30.38,10.0,East,9.2,-,N/A,,Mostly Cloudy,90,2013-12-04 09:53:00
3:53 AM,1.9,-5.1,72,30.39,10.0,Calm,Calm,-,N/A,,Clear,0,2013-12-04 10:53:00
4:53 AM,3.9,-5.1,66,30.40,10.0,ESE,3.5,-,N/A,,Clear,120,2013-12-04 11:53:00
5:53 AM,1.0,-5.1,75,30.42,10.0,WNW,4.6,-,N/A,,Overcast,290,2013-12-04 12:53:00
6:53 AM,1.0,-2.9,83,30.44,10.0,WNW,3.5,-,N/A,,Overcast,290,2013-12-04 13:53:00
7:53 AM,1.9,-2.0,83,30.45,10.0,WNW,4.6,-,N/A,,Overcast,290,2013-12-04 14:53:00
8:53 AM,1.0,-2.9,83,30.46,10.0,West,4.6,-,N/A,,Mostly Cloudy,280,2013-12-04 15:53:00
9:53 AM,3.0,-2.0,80,30.46,10.0,West,3.5,-,N/A,,Clear,260,2013-12-04 16:53:00
10:53 AM,8.1,-0.9,67,30.47,10.0,West,5.8,-,N/A,,Clear,260,2013-12-04 17:53:00
11:53 AM,9.0,-2.0,61,30.45,10.0,West,3.5,-,N/A,,Overcast,260,2013-12-04 18:53:00
12:53 PM,10.9,-0.9,59,30.42,10.0,West,4.6,-,N/A,,Clear,260,2013-12-04 19:53:00
1:53 PM,12.0,-2.0,53,30.41,10.0,SSW,3.5,-,N/A,,Clear,200,2013-12-04 20:53:00
2:53 PM,12.9,-5.1,45,30.39,10.0,SE,3.5,-,N/A,,Clear,130,2013-12-04 21:53:00
3:53 PM,12.0,-4.0,49,30.40,10.0,SE,8.1,-,N/A,,Clear,130,2013-12-04 22:53:00
4:53 PM,7.0,-2.9,64,30.40,10.0,West,3.5,-,N/A,,Clear,280,2013-12-04 23:53:00
5:53 PM,6.1,-2.9,67,30.43,10.0,NNW,4.6,-,N/A,,Clear,330,2013-12-05 00:53:00
6:53 PM,3.0,-4.0,73,30.44,10.0,Calm,Calm,-,N/A,,Clear,0,2013-12-05 01:53:00
7:53 PM,1.9,-5.1,72,30.44,10.0,NW,4.6,-,N/A,,Clear,320,2013-12-05 02:53:00
8:53 PM,1.0,-5.1,75,30.46,10.0,North,3.5,-,N/A,,Clear,360,2013-12-05 03:53:00
9:53 PM,-0.0,-6.0,76,30.46,10.0,NNW,3.5,-,N/A,,Clear,340,2013-12-05 04:53:00
10:53 PM,-2.0,-7.1,79,30.46,10.0,NNW,3.5,-,N/A,,Clear,330,2013-12-05 05:53:00
11:53 PM,-2.9,-8.0,79,30.46,10.0,WNW,4.6,-,N/A,,Clear,300,2013-12-05 06:53:00